Temperature
20 18 18 19 19 20 20 20 19 19 19 18 17 17 17 17 17 16 16 17 17 17 18 18 18 19 18 18 18 18 17 17 17 17 17 16 16 16 15 15 15 15 14 14
19 19 20 20 20 19 20 19 19 19 19 19 17 17 17 17 16 16 16 16 17 17 17 17 18 18 18 18 18 17 17 17 16 16 16 16 15 15 15 15 15 14 14 14
21 21 21 21 20 20 20 19 19 19 19 18 18 18 17 17 17 17 16 16 17 17 17 17 17 17 17 17 17 17 17 16 16 16 15 15 15 15 15 14 14 14 14 14
20 20 21 21 21 20 20 20 20 19 18 17 18 17 17 16 16 16 16 16 16 16 16 16 16 17 17 17 17 16 16 16 16 15 15 15 15 14 14 14 14 14 14 13
20 21 21 21 21 21 20 20 19 19 17 17 17 16 16 16 16 16 15 16 16 16 16 16 16 16 16 16 16 16 16 16 15 15 15 15 14 14 14 14 14 14 13 13
20 21 21 21 21 21 20 18 18 16 16 17 17 17 16 15 16 16 16 15 15 16 16 16 16 16 16 16 16 16 16 15 15 15 15 14 14 14 14 14 13 13 13 13
19 20 20 21 20 20 18 17 17 17 16 16 16 16 16 16 16 16 15 15 15 15 15 15 15 15 15 15 15 15 15 15 15 15 14 14 14 14 14 13 13 13 13 13
18 19 20 20 20 19 18 17 16 17 16 16 16 16 16 16 16 16 15 15 15 15 15 15 15 15 15 15 15 14 14 14 14 14 14 14 14 13 13 13 13 13 13 12
18 19 20 20 19 19 18 16 16 15 16 15 15 16 16 16 15 15 15 14 14 14 14 14 14 15 14 14 14 14 14 14 14 14 14 13 13 13 13 13 13 13 13 12
18 18 19 19 19 18 17 16 14 14 15 16 16 16 15 15 15 14 13 13 14 14 14 14 14 14 14 14 14 14 14 14 13 13 13 13 13 13 13 13 13 12 12 12
17 17 17 18 18 18 17 16 14 13 14 15 15 15 15 15 14 13 13 13 13 14 14 14 14 14 14 14 14 13 13 13 13 13 13 13 13 13 13 13 12 12 12 12
15 14 15 17 17 17 17 16 14 15 14 13 13 14 15 14 14 13 13 13 14 13 13 14 14 13 14 13 13 13 13 13 13 13 13 13 13 12 12 12 12 12 12 12
15 15 15 16 16 16 16 16 14 13 12 13 13 15 14 13 13 13 13 13 13 13 13 13 13 13 13 13 13 13 13 13 13 12 12 12 12 12 12 12 12 12 12 12
15 14 15 16 16 16 16 16 15 14 13 13 14 14 14 13 13 13 13 13 13 13 13 13 13 13 12 12 12 12 12 12 12 12 12 12 12 12 12 12 12 12 11 11
14 15 15 15 16 16 16 16 16 15 14 14 15 14 14 13 13 13 13 13 13 13 13 13 12 12 12 12 12 12 12 12 12 12 12 12 12 11 11 11 11 11 11 11
12 14 15 15 16 16 15 15 15 15 15 14 14 14 13 13 13 13 13 13 13 13 12 12 12 12 12 12 12 12 12 12 12 12 11 11 11 11 11 11 11 11 11 11
12 13 14 14 15 16 15 15 15 15 14 14 14 13 12 12 12 12 13 13 13 13 12 12 12 12 12 12 12 11 11 11 11 11 11 11 11 11 11 11 11 11 11 11
12 11 11 12 14 15 15 15 15 15 14 13 13 13 12 12 13 13 13 13 13 13 12 12 12 12 12 12 11 11 11 11 11 11 11 11 11 11 11 11 11 11 11 11
11 12 11 11 13 14 15 15 14 14 14 13 12 12 12 13 12 13 13 13 13 13 13 12 12 12 12 12 11 11 11 11 11 11 11 11 11 11 11 11 11 11 11 11
11 11 11 11 14 14 14 15 15 14 13 13 13 12 12 12 11 12 13 13 13 13 12 12 12 12 12 11 11 11 11 11 11 11 11 11 11 11 11 11 11 11 11 11
12 11 11 11 12 13 14 14 15 14 13 13 13 13 12 12 12 13 13 13 13 12 12 12 12 12 12 11 11 11 11 11 11 11 11 11 11 11 11 11 11 11 11 11
12 11 11 11 12 13 14 13 13 12 13 13 13 13 13 13 13 13 13 13 12 12 12 12 11 11 11 11 11 11 11 11 11 11 11 11 11 11 11 11 11 11 11 11
11 11 10 11 11 13 13 13 14 14 13 14 14 13 13 13 13 13 12 12 12 12 12 11 11 11 11 11 11 11 11 11 11 11 11 11 11 11 11 11 11 11 11 11
11 10 10 10 11 13 14 14 14 14 14 14 14 13 13 13 13 12 12 12 12 12 11 11 11 11 11 11 11 11 11 11 11 11 11 11 11 11 11 11 11 11 11 11
10 10 10 10 11 12 13 14 14 14 13 13 13 13 13 13 12 12 12 12 12 11 11 11 11 11 11 11 11 11 11 11 11 11 11 11 11 11 11 11 11 11 11 11
10 10 10 11 12 11 13 13 13 13 13 13 13 13 13 12 12 12 12 12 11 11 11 11 11 11 11 11 11 11 11 11 11 11 11 11 11 11 11 11 11 11 11 11
Wind_Speed
2 4 1 6 6 4 2 1 3 3 2 2 3 1 1 2 3 3 3 2 2 2 2 3 3 2 2 2 3 3 2 1 1 1 1 1 1 1 1 2 3 3 3 3
4 2 5 3 2 2 1 1 2 3 2 2 3 2 1 2 1 1 1 1 1 2 4 3 3 2 2 0 1 2 2 2 2 2 1 1 1 1 1 2 2 2 2 2
3 4 1 1 1 1 2 3 3 2 2 3 3 2 2 2 2 3 3 2 1 1 2 2 2 2 1 1 1 1 2 2 2 2 1 1 2 2 2 2 2 3 3 3
2 3 1 1 1 2 3 4 3 3 2 1 1 1 3 2 3 3 2 2 2 3 3 2 2 2 2 1 1 0 1 1 2 2 2 2 1 1 3 2 2 3 3 3
3 2 1 1 3 2 3 1 2 2 3 2 2 2 4 2 3 4 3 2 2 3 3 3 2 2 2 1 1 0 1 1 1 2 3 2 1 2 1 1 2 2 3 3
3 3 1 2 2 1 1 5 5 5 4 1 2 2 4 2 4 4 2 2 2 2 3 3 4 2 2 2 2 1 1 1 1 1 2 2 2 1 1 2 2 2 3 3
7 6 5 2 4 5 6 6 4 5 4 3 1 1 4 3 3 2 1 2 2 2 2 3 5 4 3 3 3 3 1 1 1 0 1 2 2 2 3 3 3 3 3 3
5 6 6 4 1 1 2 5 5 3 3 4 3 2 4 3 4 3 2 2 2 3 3 3 3 3 3 3 4 3 3 2 2 1 1 2 1 2 2 3 3 3 3 4
2 5 5 4 3 3 3 2 3 5 1 1 3 3 4 4 6 6 5 4 4 3 4 4 4 3 3 3 3 3 3 2 2 2 1 2 2 2 3 3 3 3 3 4
1 3 5 5 5 7 4 4 5 4 1 2 4 3 3 4 3 4 4 4 4 4 4 4 4 3 3 3 3 3 3 2 2 2 2 2 2 2 3 2 4 4 4 4
2 1 6 6 5 4 4 5 5 4 3 3 2 4 2 3 2 0 2 2 2 3 3 3 3 4 3 3 4 4 4 3 3 3 3 2 3 3 2 3 4 4 4 3
2 3 2 4 3 2 2 2 3 3 1 2 2 5 4 3 1 2 2 2 2 2 3 3 3 3 3 3 3 3 3 3 3 3 3 3 3 3 3 4 4 4 4 4
2 4 3 6 6 6 5 3 3 5 4 2 1 5 3 5 5 3 2 2 2 2 3 3 3 4 4 3 3 4 4 4 4 3 3 3 4 4 4 5 5 4 4 4
4 4 4 3 4 3 3 3 2 4 2 2 3 5 5 6 5 4 2 1 2 2 2 3 3 4 4 4 4 4 5 4 4 3 3 3 4 4 4 4 4 4 3 3
4 2 1 2 3 0 1 3 2 1 3 4 4 3 5 4 4 3 2 1 2 2 3 3 3 4 4 4 5 5 5 5 4 4 4 4 4 4 4 4 4 4 4 4
4 2 1 2 2 2 3 4 3 1 1 1 2 3 3 3 2 2 2 1 2 3 4 4 4 4 4 4 5 5 5 5 4 4 4 4 4 4 4 4 4 4 4 4
2 2 1 3 5 2 3 3 1 1 1 1 2 4 3 3 3 3 3 3 4 4 4 4 5 5 5 5 5 5 5 4 4 4 4 4 4 4 4 4 4 4 4 4
3 3 2 1 4 1 4 2 1 0 1 1 1 2 3 3 4 4 4 4 5 4 4 5 5 5 5 5 4 4 4 4 4 4 4 4 3 4 5 4 4 4 3 3
3 5 3 2 1 4 4 2 1 1 3 1 1 3 3 3 4 4 4 4 5 5 4 4 4 5 5 5 4 4 4 4 4 5 5 5 4 4 5 5 5 4 3 4
5 4 4 3 1 3 4 5 3 1 3 3 2 3 3 3 4 6 6 5 5 4 4 4 4 4 4 5 3 3 4 4 5 5 5 5 4 4 4 5 4 3 3 3
3 4 2 2 2 5 4 5 3 1 5 5 3 4 4 4 6 7 6 5 4 5 5 4 3 3 5 4 3 3 4 5 6 5 4 4 4 4 4 3 3 3 3 3
1 1 1 2 1 5 3 2 1 5 5 4 4 4 5 5 6 5 5 5 5 5 5 4 4 5 5 4 3 4 5 6 5 4 4 4 4 4 4 3 4 3 3 3
3 5 4 5 6 5 3 4 4 3 4 5 4 5 4 4 5 5 5 5 5 5 5 4 4 6 6 4 3 4 6 5 4 3 4 4 4 3 3 3 3 4 3 2
3 1 2 3 6 6 5 4 4 4 5 6 5 5 4 5 5 6 5 5 5 5 5 4 4 5 6 5 4 5 5 4 3 3 3 3 3 3 4 3 2 3 3 3
5 2 2 5 6 6 5 5 5 5 4 4 4 4 4 4 5 5 5 5 5 5 5 4 4 5 6 6 5 5 4 3 3 3 3 3 2 2 3 3 3 4 4 4
4 5 5 7 7 5 7 7 6 5 5 5 4 4 4 4 5 5 5 5 5 5 5 5 5 6 6 5 6 5 4 2 2 3 3 3 3 2 3 3 4 5 4 5
Wind_Direction
70 67 252 239 212 210 202 223 282 282 273 102 130 134 334 57 71 61 52 45 28 342 343 20 40 58 88 101 125 142 136 158 155 157 165 182 225 253 266 267 252 244 242 234
39 307 255 231 165 160 189 231 279 310 353 111 119 74 2 41 55 78 130 99 336 352 356 1 12 21 35 93 144 152 155 167 192 199 175 197 224 264 277 287 289 264 255 253
185 252 264 109 93 128 237 210 221 225 16 48 98 21 5 328 9 26 27 22 8 350 311 325 350 346 346 329 280 178 188 191 186 151 100 57 38 24 358 325 304 299 288 276
258 287 35 49 293 155 268 244 201 165 108 291 92 244 286 302 331 341 339 343 332 339 331 321 327 329 319 328 4 146 185 177 167 156 158 158 187 249 253 259 268 296 294 280
296 322 34 337 284 186 237 352 91 116 129 73 24 131 291 347 308 295 289 308 345 347 335 327 319 298 318 5 14 107 95 111 165 181 186 192 217 236 271 295 292 303 305 301
304 328 54 278 333 93 73 57 56 53 73 52 285 155 283 276 273 292 300 328 351 347 356 357 354 13 12 14 15 20 66 84 208 189 200 196 204 233 268 291 288 294 298 297
344 348 351 8 19 18 54 69 29 5 14 264 288 156 254 294 303 265 281 329 339 2 17 15 15 20 20 12 11 15 29 341 332 153 221 225 214 225 247 259 261 273 286 288
10 330 337 0 17 275 70 118 144 206 237 283 337 257 275 340 6 21 31 42 22 12 13 12 8 14 20 15 7 355 343 323 333 18 320 283 235 234 256 263 260 261 268 274
21 297 321 354 357 93 87 81 150 139 126 317 297 299 323 33 29 32 33 35 19 7 6 12 6 7 14 15 4 353 342 323 336 347 333 316 306 284 279 285 281 275 276 279
134 294 318 327 29 30 91 124 78 88 106 297 309 315 303 322 343 10 19 19 10 15 9 6 3 1 3 358 358 5 6 4 344 336 315 314 314 296 286 288 285 283 281 281
76 90 328 9 28 345 25 49 79 95 130 153 291 292 308 286 274 351 3 4 5 4 354 353 350 344 354 6 8 359 357 356 346 338 331 326 312 297 290 289 287 286 287 287
71 107 328 307 307 347 79 96 121 114 307 151 185 277 334 6 43 76 21 2 1 1 345 343 346 348 1 8 356 347 343 344 333 328 332 324 319 316 317 307 302 299 294 292
90 86 24 351 350 7 32 38 90 116 113 140 179 277 347 26 31 37 31 351 350 0 354 354 353 348 348 342 336 335 339 337 339 340 336 332 327 327 320 310 306 306 306 307
100 90 145 199 247 297 331 3 79 110 128 219 235 270 327 353 347 345 335 322 331 348 340 339 337 337 336 334 332 334 334 335 338 339 331 324 319 317 313 311 311 307 308 309
78 99 185 237 261 229 14 345 24 135 193 202 258 279 303 306 300 297 286 318 346 335 323 316 320 321 324 330 329 329 325 329 335 338 330 316 314 317 321 322 320 320 319 318
57 109 27 332 352 52 28 358 0 342 294 250 306 302 304 315 326 335 314 313 309 296 301 305 309 312 315 316 315 320 320 320 329 328 316 311 318 325 326 321 322 327 329 329
55 111 67 303 320 13 349 319 325 348 326 230 257 273 308 335 324 295 279 268 270 280 289 294 297 295 297 297 297 302 307 318 326 320 316 313 318 325 319 320 331 329 328 335
134 111 116 341 18 321 260 312 10 89 336 297 261 298 297 292 302 292 274 257 270 279 285 290 292 295 294 292 298 302 312 316 314 317 317 313 319 321 320 324 324 321 321 326
134 132 108 95 351 292 310 339 329 279 295 306 254 298 318 327 352 326 303 282 268 269 271 275 280 283 290 295 299 310 312 313 316 318 316 313 316 317 320 320 314 311 319 321
56 80 105 110 157 262 270 309 315 110 306 308 264 278 297 355 337 295 300 300 292 291 290 290 296 303 303 302 309 315 310 312 307 305 308 313 312 306 307 307 306 303 301 306
17 32 80 156 225 268 276 315 20 73 278 294 265 258 254 248 249 273 295 300 288 291 297 300 298 294 287 294 308 309 309 300 298 305 311 315 315 307 304 312 314 312 317 326
193 164 201 148 202 271 304 31 131 244 270 273 260 253 251 263 277 282 283 284 290 301 308 310 304 297 295 292 294 300 294 289 301 309 314 319 318 315 324 331 329 325 322 319
203 198 197 194 221 256 283 252 262 238 257 264 250 262 259 266 278 285 284 284 285 286 293 301 294 297 302 298 283 278 284 292 303 311 312 314 320 324 327 327 322 323 323 321
283 177 179 260 270 275 282 277 277 263 260 265 257 258 253 262 274 284 289 291 292 293 295 300 304 305 305 302 291 275 284 291 291 292 301 312 317 322 327 322 313 312 315 311
244 214 235 264 278 302 296 278 272 290 293 293 289 265 246 252 272 275 281 284 285 290 291 290 290 289 291 298 299 296 295 287 282 288 293 297 297 300 311 311 296 287 280 264
218 203 210 245 248 238 267 271 276 280 283 280 280 282 275 261 263 272 276 277 285 289 290 294 294 294 294 294 295 300 302 287 278 288 290 286 288 290 291 301 315 303 282 299
Height
1497 1502 1507 1503 1501 1501 1503 1506 1508 1505 1499 1502 1505 1505 1504 1502 1502 1501 1502 1501 1501 1501 1501 1500 1500 1500 1501 1501 1501 1501 1501 1502 1503 1503 1503 1503 1503 1503 1503 1504 1504 1504 1503 1503
1503 1505 1498 1496 1497 1499 1502 1507 1508 1504 1499 1502 1506 1507 1504 1503 1503 1503 1502 1502 1501 1500 1500 1499 1499 1499 1499 1500 1500 1500 1500 1500 1501 1502 1502 1502 1502 1501 1501 1502 1501 1501 1500 1500
1502 1499 1494 1495 1498 1501 1502 1505 1505 1505 1503 1502 1506 1510 1507 1504 1503 1503 1503 1502 1501 1501 1500 1500 1499 1499 1499 1498 1499 1498 1499 1499 1499 1500 1501 1501 1500 1500 1500 1499 1499 1498 1498 1497
1499 1495 1494 1496 1497 1498 1504 1496 1497 1501 1509 1515 1510 1522 1511 1507 1505 1503 1502 1502 1501 1501 1500 1500 1499 1498 1498 1498 1498 1498 1498 1498 1498 1498 1498 1498 1498 1497 1497 1497 1496 1496 1495 1494
1499 1495 1495 1497 1495 1495 1497 1494 1497 1501 1508 1515 1514 1520 1516 1508 1508 1504 1502 1501 1500 1501 1500 1500 1499 1498 1498 1497 1497 1497 1496 1496 1496 1496 1496 1496 1496 1495 1495 1495 1494 1493 1493 1492
1497 1494 1494 1494 1492 1492 1494 1498 1502 1509 1514 1524 1518 1521 1521 1512 1507 1503 1501 1501 1501 1501 1500 1500 1499 1498 1497 1496 1496 1496 1495 1495 1494 1494 1494 1494 1494 1494 1493 1493 1492 1491 1490 1489
1504 1498 1495 1493 1496 1496 1499 1510 1524 1525 1531 1528 1517 1519 1519 1506 1503 1502 1502 1501 1501 1501 1500 1499 1498 1497 1496 1495 1495 1494 1494 1493 1492 1492 1492 1492 1492 1492 1491 1491 1490 1489 1488 1486
1517 1514 1500 1496 1498 1501 1503 1510 1528 1535 1536 1530 1519 1520 1514 1505 1503 1502 1502 1502 1502 1501 1501 1500 1499 1498 1497 1496 1495 1494 1493 1493 1492 1491 1490 1491 1491 1490 1490 1490 1489 1487 1486 1485
1518 1515 1500 1497 1497 1499 1506 1512 1513 1526 1528 1532 1526 1517 1509 1505 1504 1503 1503 1503 1502 1502 1501 1500 1500 1499 1497 1496 1495 1493 1492 1492 1491 1490 1490 1490 1489 1489 1489 1488 1487 1485 1484 1483
1511 1516 1506 1501 1499 1501 1504 1510 1520 1527 1534 1536 1527 1522 1520 1510 1508 1506 1505 1504 1504 1503 1502 1501 1500 1499 1498 1496 1495 1494 1492 1490 1489 1489 1489 1489 1488 1488 1487 1486 1485 1484 1482 1481
1510 1518 1514 1508 1509 1511 1509 1513 1521 1530 1530 1537 1538 1529 1512 1510 1508 1508 1506 1505 1505 1504 1503 1502 1501 1500 1498 1497 1495 1494 1493 1491 1490 1489 1488 1488 1487 1487 1486 1484 1483 1481 1480 1479
1514 1521 1524 1516 1509 1507 1508 1513 1519 1528 1531 1534 1537 1532 1510 1508 1507 1507 1507 1506 1506 1505 1504 1503 1501 1500 1498 1497 1496 1495 1493 1491 1489 1488 1488 1487 1486 1485 1483 1482 1481 1479 1477 1476
1514 1522 1530 1525 1521 1514 1514 1514 1517 1524 1531 1535 1536 1528 1510 1508 1508 1508 1508 1507 1506 1505 1504 1502 1501 1499 1498 1497 1496 1494 1492 1490 1489 1487 1486 1485 1484 1483 1481 1480 1478 1476 1474 1473
1512 1523 1529 1532 1528 1520 1518 1516 1516 1522 1530 1531 1527 1521 1512 1510 1510 1509 1508 1507 1506 1505 1504 1503 1501 1499 1498 1496 1495 1493 1491 1489 1488 1487 1485 1484 1482 1481 1479 1478 1476 1474 1472 1470
1514 1523 1522 1521 1518 1518 1518 1517 1516 1519 1520 1524 1520 1518 1514 1512 1510 1509 1507 1506 1505 1505 1504 1503 1501 1499 1498 1496 1494 1492 1490 1489 1487 1485 1484 1483 1481 1479 1477 1475 1474 1472 1470 1469
1518 1523 1523 1522 1517 1517 1519 1517 1516 1516 1516 1518 1516 1517 1513 1511 1509 1508 1507 1506 1505 1504 1503 1502 1500 1499 1497 1495 1493 1491 1489 1488 1486 1485 1483 1482 1480 1478 1476 1474 1472 1470 1469 1467
1523 1525 1528 1529 1522 1518 1524 1520 1517 1517 1516 1517 1519 1517 1512 1511 1509 1508 1506 1505 1504 1503 1502 1501 1499 1498 1497 1495 1493 1491 1489 1487 1485 1484 1482 1480 1479 1477 1474 1473 1471 1469 1467 1466
1523 1527 1533 1533 1527 1531 1526 1516 1515 1516 1516 1515 1514 1514 1512 1511 1509 1508 1506 1505 1503 1502 1501 1499 1498 1497 1495 1494 1492 1490 1487 1486 1484 1482 1481 1479 1477 1475 1473 1471 1470 1468 1466 1465
1520 1526 1533 1537 1535 1531 1522 1517 1517 1518 1517 1514 1514 1513 1512 1510 1508 1507 1506 1504 1503 1501 1500 1498 1497 1496 1494 1492 1490 1488 1486 1484 1483 1481 1480 1478 1476 1474 1473 1471 1469 1467 1465 1464
1523 1525 1532 1536 1534 1535 1525 1516 1514 1517 1520 1514 1513 1512 1511 1510 1511 1507 1504 1503 1501 1500 1498 1496 1495 1494 1492 1490 1488 1486 1484 1483 1481 1480 1478 1477 1476 1474 1472 1470 1468 1467 1465 1463
1529 1531 1534 1536 1536 1529 1520 1516 1515 1524 1523 1514 1512 1511 1510 1509 1509 1506 1503 1501 1500 1498 1496 1494 1493 1491 1490 1488 1486 1484 1483 1481 1480 1479 1478 1476 1475 1473 1471 1469 1468 1466 1464 1462
1532 1534 1536 1538 1537 1533 1517 1516 1520 1520 1514 1512 1511 1510 1509 1507 1505 1503 1501 1499 1498 1496 1494 1493 1491 1489 1488 1486 1485 1482 1481 1480 1479 1478 1476 1475 1474 1472 1470 1468 1467 1465 1463 1461
1530 1530 1530 1531 1529 1519 1516 1516 1515 1514 1512 1510 1509 1508 1507 1505 1503 1501 1499 1498 1496 1495 1493 1491 1489 1487 1486 1485 1483 1481 1480 1479 1477 1476 1475 1474 1473 1471 1469 1468 1466 1464 1462 1460
1526 1524 1525 1525 1519 1516 1515 1514 1513 1512 1511 1509 1507 1506 1505 1503 1501 1499 1497 1496 1494 1492 1491 1489 1487 1485 1484 1482 1481 1480 1479 1478 1476 1475 1474 1473 1471 1470 1468 1467 1465 1463 1461 1459
1524 1523 1523 1522 1516 1514 1512 1512 1511 1509 1508 1507 1505 1504 1503 1501 1499 1497 1495 1494 1492 1490 1489 1487 1485 1483 1482 1480 1480 1479 1477 1476 1475 1474 1473 1472 1470 1469 1467 1466 1464 1463 1461 1459
1519 1520 1520 1518 1513 1513 1510 1509 1508 1507 1505 1504 1503 1501 1501 1499 1497 1495 1493 1492 1490 1489 1487 1485 1483 1482 1480 1479 1478 1477 1476 1475 1473 1472 1471 1470 1469 1467 1466 1464 1463 1461 1460 1458